Wind_Speed
15 15 16 16 17 17 18 20 20 20 20 21 21 22 23 25 29 25 9 19 15 14 23 10 2 10 5 3 4 5 3 5 6 6 5 6 5 2 5 4 6 6 4 8 12
16 16 16 17 18 18 18 19 20 22 22 21 21 21 22 25 26 16 30 22 28 21 9 11 8 8 4 4 4 5 5 10 7 10 3 6 9 8 4 3 5 5 5 1 6
16 18 19 20 20 21 21 20 20 21 21 21 21 20 22 21 6 7 9 15 12 12 23 11 12 6 6 5 6 7 9 18 8 9 3 6 8 5 8 8 7 3 11 8 2
19 19 20 21 22 22 22 22 22 21 20 20 20 19 20 6 7 1 3 11 22 18 17 12 5 6 7 11 7 4 13 15 16 11 4 14 6 10 14 12 16 14 7 8 11
20 21 23 24 25 25 25 25 24 24 22 19 16 14 9 4 11 29 28 32 19 10 12 14 11 8 10 4 5 15 7 9 18 15 10 10 17 14 19 14 13 15 15 12 11
23 24 25 26 27 28 28 28 27 27 23 20 14 8 5 10 14 17 17 20 12 9 6 16 7 5 4 6 9 2 11 15 11 10 6 12 20 15 14 19 14 11 11 11 11
25 26 26 26 29 28 26 25 27 29 22 16 10 5 8 18 24 30 31 31 31 20 5 14 19 8 7 1 5 4 7 10 10 4 7 1 23 24 18 15 16 18 17 10 10
27 28 29 30 30 29 27 24 24 25 17 7 6 6 7 27 27 31 27 27 20 17 18 19 14 4 4 1 4 4 4 14 13 11 6 7 29 11 11 14 19 12 9 9 12
27 29 29 30 29 28 27 26 23 12 8 5 7 5 10 16 9 15 13 13 8 14 13 9 5 5 3 5 3 5 16 17 9 5 8 16 30 14 15 12 16 13 14 14 15
27 29 29 29 26 24 18 19 18 5 7 3 4 2 6 14 31 33 38 15 7 5 5 7 4 5 3 9 17 10 11 11 11 4 11 15 28 12 10 13 17 17 17 19 19
28 29 29 27 22 16 15 13 7 5 4 7 10 8 19 25 32 26 11 16 11 5 9 5 6 16 23 18 2 4 9 3 8 10 14 19 24 20 15 11 17 18 18 18 11
31 29 28 25 20 10 11 2 5 8 8 11 12 12 19 16 9 21 3 3 5 3 4 3 18 12 5 7 7 6 5 3 7 8 4 10 17 10 10 13 15 18 17 16 14
30 29 25 23 17 5 14 7 16 9 2 7 7 8 7 2 7 15 5 5 2 7 4 7 7 11 6 7 7 6 11 8 5 9 17 12 18 12 12 8 12 17 10 10 9
31 29 22 22 4 15 10 16 24 4 2 5 4 6 5 7 6 6 8 6 6 9 6 5 7 6 3 11 7 11 4 5 8 5 10 2 17 18 21 23 20 19 18 9 11
34 28 21 12 12 6 10 21 21 3 3 10 5 8 14 6 14 12 24 9 8 5 5 6 1 4 10 4 6 11 10 9 11 6 4 7 5 23 8 22 17 15 17 13 18
35 28 21 2 7 13 14 24 1 4 3 6 10 13 15 10 9 9 6 1 5 4 6 5 5 4 6 5 5 1 4 7 7 3 6 8 9 24 9 20 19 21 11 16 10
35 25 8 5 4 13 19 5 4 4 8 9 12 16 15 13 9 8 11 8 4 2 2 6 13 9 5 5 4 3 4 1 1 3 10 12 9 22 6 3 5 8 9 11 11
34 9 0 5 8 13 10 5 6 4 4 9 13 15 6 10 6 13 5 2 3 3 2 1 2 7 3 11 6 5 8 4 6 4 7 6 13 16 12 23 21 19 13 10 10
23 8 2 3 4 6 4 5 2 4 11 9 14 4 4 5 4 8 6 5 3 3 3 3 3 2 3 1 7 2 4 7 3 3 2 6 10 18 20 15 14 10 9 10 9
14 10 3 3 0 5 5 4 3 8 11 6 3 5 4 7 7 6 5 4 9 8 5 3 2 3 4 3 6 6 4 3 1 5 5 6 8 12 6 19 20 15 9 11 10
5 3 3 3 1 4 2 4 7 9 10 3 3 4 4 4 4 4 4 2 6 9 6 3 1 4 3 3 3 1 3 4 3 5 4 3 6 7 12 9 5 9 11 12 10
7 2 7 2 4 1 1 7 10 7 10 4 4 4 3 4 4 3 4 3 5 3 5 4 2 3 9 8 7 4 4 3 6 7 11 1 8 8 3 7 7 9 10 9 0
4 3 5 4 2 3 5 5 4 6 9 2 4 4 1 3 4 4 5 3 4 1 0 2 0 3 7 3 3 2 4 6 1 2 11 10 9 5 8 14 12 10 9 2 4
3 4 4 4 1 1 4 4 4 8 11 6 8 2 3 4 6 6 10 7 2 5 9 4 4 6 5 5 4 5 9 6 3 4 12 20 18 18 23 17 15 16 5 5 6
3 2 1 4 3 6 3 3 6 7 4 4 4 3 7 6 11 7 4 7 6 8 1 5 5 5 8 12 15 15 14 19 15 11 5 14 17 6 15 14 16 20 7 8 10
2 3 4 5 6 4 3 3 7 12 5 5 6 14 12 9 12 19 14 8 7 5 5 4 4 4 12 16 17 17 21 19 18 18 13 14 22 11 18 12 14 16 13 13 15
4 4 1 5 4 3 4 6 13 11 6 9 14 14 9 13 11 16 16 17 16 9 6 6 2 2 5 6 10 13 16 20 15 11 9 14 9 11 6 9 11 13 13 16 18
Wind_Direction
351 346 342 340 336 334 332 330 330 328 327 328 329 330 329 325 319 314 252 254 265 274 253 247 237 201 197 245 193 139 119 239 238 181 232 322 19 151 334 5 354 351 164 215 208
355 350 342 339 336 333 330 328 325 325 324 324 326 327 328 330 321 270 284 283 263 253 260 218 219 163 179 212 205 165 170 225 217 224 270 317 310 335 325 25 300 326 293 330 245
351 348 342 337 334 332 330 328 324 322 320 319 320 324 328 336 306 249 77 42 24 267 247 261 220 170 201 184 204 194 214 231 236 228 249 278 285 297 306 294 207 261 293 319 260
349 344 340 337 333 328 325 320 315 311 311 314 319 326 328 333 288 274 276 335 326 325 227 215 207 191 201 205 186 213 224 237 253 241 250 262 276 281 274 263 297 293 266 289 275
344 342 339 338 336 331 326 320 314 310 308 308 311 322 340 359 254 274 288 303 318 347 209 216 202 179 206 194 194 243 223 242 251 252 253 272 261 256 264 266 269 279 276 263 257
347 343 340 338 334 333 336 332 328 322 308 302 300 308 285 277 273 295 306 304 320 332 310 214 217 197 208 211 202 185 216 246 264 264 252 267 271 265 263 270 273 259 255 258 246
347 343 338 334 334 339 342 338 336 333 316 292 280 264 250 248 279 283 289 287 283 279 289 237 242 203 160 272 252 255 283 272 232 247 250 345 269 253 249 267 263 262 264 250 255
343 338 333 330 326 325 340 342 340 336 327 278 214 205 251 278 288 283 292 283 267 252 237 259 267 243 181 263 335 218 203 242 253 216 234 169 256 258 229 236 255 266 262 267 272
337 336 333 330 327 326 333 346 348 354 34 113 140 171 267 308 277 318 343 266 283 217 222 244 168 190 90 134 355 242 240 232 255 199 202 201 259 248 255 255 266 273 276 281 282
338 337 337 336 340 344 349 346 333 287 47 89 141 283 273 304 296 300 299 280 263 239 204 191 170 161 164 167 214 218 229 237 234 200 215 246 258 244 272 278 274 271 273 272 270
342 339 340 337 342 345 351 349 8 343 5 242 260 254 271 285 294 295 285 322 266 220 188 184 172 204 201 207 288 14 251 0 265 220 212 237 258 260 252 242 253 257 258 262 256
344 340 339 334 337 344 356 24 315 290 299 264 244 253 252 264 295 295 96 171 310 220 161 177 225 212 163 199 241 266 275 272 295 296 252 278 276 281 262 255 249 255 261 264 272
346 341 340 329 327 323 330 303 337 336 283 294 251 251 286 224 258 266 158 138 271 291 248 210 253 222 203 213 218 220 241 255 253 326 300 306 285 279 263 246 260 267 253 250 237
349 344 340 330 330 328 304 331 335 318 25 277 283 269 288 313 254 321 185 167 202 223 193 238 249 265 261 237 239 253 199 240 237 215 261 209 286 276 276 272 261 260 260 252 243
349 341 339 326 296 300 312 326 332 117 350 328 338 307 318 349 306 356 321 177 208 227 134 237 29 201 233 231 201 251 253 257 230 236 262 242 308 270 217 263 253 245 256 252 251
342 334 330 270 264 303 316 329 328 51 277 321 330 335 331 346 32 34 298 128 182 192 264 241 262 165 195 231 208 141 205 220 227 126 250 209 192 276 241 245 249 245 230 248 251
338 334 307 255 254 310 325 1 48 89 345 336 325 329 314 339 353 8 339 340 26 160 219 252 247 254 202 243 277 165 80 178 168 201 230 192 188 238 254 241 231 235 240 247 250
342 359 76 277 309 313 348 47 70 352 24 299 309 315 342 358 332 344 359 98 110 313 325 251 257 193 181 203 186 179 163 177 185 187 226 153 225 237 230 261 265 266 273 258 261
352 15 40 32 336 335 53 40 279 1 324 321 315 337 318 340 317 354 347 356 16 181 238 196 250 332 102 171 148 194 164 201 12 235 233 233 274 280 274 273 283 273 275 272 257
343 335 341 144 219 39 62 303 283 319 313 315 294 353 318 328 340 2 343 17 345 18 352 6 337 335 343 344 232 167 191 83 279 213 232 253 256 236 224 237 265 278 295 286 260
6 27 15 168 46 53 109 253 300 305 323 324 299 296 299 325 287 308 299 353 15 349 350 14 139 285 23 232 194 239 194 204 190 204 231 293 257 203 216 255 261 288 294 295 273
347 45 348 282 45 58 339 298 294 291 328 285 237 269 299 281 293 289 300 273 22 356 341 335 160 252 237 232 261 249 210 198 213 230 238 313 259 316 234 346 326 311 316 302 113
348 286 357 89 67 316 292 283 262 305 313 297 273 248 293 287 319 249 259 193 225 30 60 312 307 313 328 43 75 213 246 222 206 299 239 231 242 355 342 333 326 313 325 10 115
2 347 328 42 21 101 303 296 313 323 300 343 281 294 345 284 220 270 282 294 181 243 252 126 228 202 190 245 307 288 298 218 210 210 247 242 275 289 295 311 327 312 272 166 144
27 321 232 308 333 320 276 275 320 320 281 301 287 301 311 278 301 259 243 301 280 271 92 163 249 205 249 265 269 262 263 269 257 244 212 265 269 284 283 289 302 290 256 184 168
35 13 341 288 276 296 292 291 312 332 311 300 278 308 301 262 254 283 285 267 245 287 178 175 257 229 272 259 259 274 264 247 246 248 252 260 273 254 264 276 304 302 287 198 183
358 320 279 272 306 301 298 310 308 318 287 270 301 308 302 278 282 275 269 259 250 243 215 175 200 337 259 283 319 271 237 220 229 215 218 244 246 253 258 280 298 306 304 197 180
Height
825 822 819 817 814 810 806 802 799 797 794 792 790 785 781 780 772 768 764 752 753 755 756 759 758 759 762 761 758 760 786 795 775 766 754 738 740 726 721 727 721 721 720 713 712
825 822 819 815 812 809 805 802 799 795 792 791 787 784 782 777 769 763 748 747 749 754 753 752 754 756 763 761 760 766 782 771 754 747 746 739 737 735 732 735 729 724 717 716 716
824 821 817 814 810 806 803 800 797 794 791 788 787 784 780 776 771 749 745 744 746 749 749 750 751 751 761 757 758 758 760 746 740 741 739 739 741 731 737 740 728 726 720 714 715
823 820 816 812 808 804 800 796 793 791 789 786 783 781 779 777 773 745 744 743 744 743 745 746 747 755 759 755 746 756 745 741 733 735 739 736 732 735 731 730 714 715 715 717 716
822 818 814 810 805 801 796 792 788 785 783 782 782 782 781 779 768 745 746 744 744 741 741 742 743 745 752 746 744 747 745 740 732 734 734 733 731 733 727 721 718 716 714 714 711
820 816 811 806 802 797 792 787 783 780 778 776 777 778 780 782 748 745 746 743 743 742 740 740 737 735 743 744 745 738 740 739 737 735 735 739 729 728 721 712 713 714 711 708 708
819 814 809 804 798 793 788 783 780 776 772 771 772 775 774 763 745 743 745 743 742 743 742 737 735 733 737 743 737 737 748 740 738 736 735 732 730 723 715 711 713 706 703 702 699
818 813 807 802 797 792 785 781 778 774 769 767 770 772 765 744 743 740 740 731 732 734 737 734 735 734 737 735 737 742 743 750 728 735 732 735 720 713 706 710 708 703 700 697 692
817 811 806 800 794 788 781 776 775 772 768 768 770 771 763 746 742 737 735 732 730 728 730 730 731 734 737 748 757 750 738 738 739 721 727 731 705 711 705 707 705 701 696 694 689
815 809 803 798 790 785 781 779 775 773 770 768 766 769 752 744 736 732 734 734 730 726 728 728 733 740 745 746 746 744 743 732 734 725 723 727 707 710 706 707 703 697 693 690 686
811 806 800 795 791 786 783 779 780 776 773 771 760 760 748 737 735 722 729 731 726 725 729 726 738 733 724 724 727 733 735 741 728 721 724 722 712 708 705 706 701 694 690 685 684
808 804 798 793 790 787 785 784 784 785 778 761 755 752 741 735 733 719 722 730 728 729 727 731 725 721 723 729 733 737 744 747 736 725 728 726 718 711 706 697 692 687 684 680 676
806 801 796 791 788 787 785 783 782 780 783 761 750 742 733 731 730 721 723 722 730 733 730 733 723 718 722 729 732 736 740 743 745 734 724 732 720 711 695 692 685 677 676 672 675
804 798 794 788 788 786 783 781 779 778 793 762 747 739 732 727 725 714 716 722 728 731 730 729 720 721 726 729 731 740 731 732 738 745 752 725 730 712 691 685 679 674 667 669 668
801 797 792 789 788 786 782 779 776 777 789 750 744 736 729 730 716 717 716 719 724 723 724 727 721 721 726 726 725 732 731 733 736 744 745 739 750 678 688 679 673 669 661 661 653
796 791 788 787 786 781 778 776 775 791 790 756 748 745 738 726 722 726 719 710 712 722 720 723 714 718 723 719 720 720 725 731 735 747 759 735 744 682 686 668 662 655 657 650 651
790 784 782 784 782 779 776 775 795 798 766 766 758 748 743 734 726 724 723 718 726 729 728 722 720 715 715 724 720 725 740 756 760 763 739 719 734 678 663 656 654 655 653 649 645
784 780 780 780 780 779 777 787 795 775 772 765 758 750 746 739 734 728 724 728 726 728 726 729 730 715 709 717 724 731 737 749 745 747 731 712 714 669 658 645 640 642 644 642 641
783 781 780 781 781 780 786 810 789 781 772 767 759 754 752 744 744 737 732 731 725 727 728 723 724 709 710 709 715 721 733 724 734 727 733 714 682 659 648 649 642 645 640 639 639
786 784 781 781 781 781 795 790 783 777 770 767 770 759 761 754 753 749 739 734 735 731 731 727 733 720 713 713 710 715 714 735 742 736 734 708 693 671 655 650 640 641 646 639 632
788 788 782 782 781 789 799 798 783 772 770 768 769 765 759 761 760 752 744 737 738 735 734 735 736 730 721 720 719 718 721 720 722 727 723 714 691 657 656 649 650 648 641 633 625
795 794 784 784 795 804 805 790 781 772 768 767 769 764 763 759 760 749 744 740 739 738 742 738 746 745 730 716 710 715 717 717 721 720 704 712 677 637 644 649 648 645 639 635 632
805 800 785 783 813 815 797 786 781 774 769 766 767 762 759 761 764 751 741 734 736 736 738 741 748 751 736 720 716 719 713 714 719 719 705 707 669 642 648 647 646 646 638 635 638
804 806 796 795 799 799 799 788 782 777 768 767 765 759 764 762 759 753 743 733 732 734 729 738 744 742 747 727 726 726 717 711 718 725 695 683 675 668 653 652 650 644 639 638 640
810 812 809 812 804 803 800 791 783 778 774 770 766 761 765 761 754 750 739 738 730 726 733 736 733 735 731 725 724 719 718 711 710 708 708 677 675 679 668 660 651 639 639 640 638
819 819 811 810 804 800 796 790 783 775 778 771 769 762 762 763 751 747 744 743 739 730 733 740 743 732 726 718 712 709 704 704 703 696 690 686 676 671 659 653 646 638 631 628 632
817 817 816 808 796 797 790 783 780 776 771 767 764 759 757 748 740 733 731 734 730 727 729 736 735 739 724 705 713 705 680 684 683 680 678 683 672 657 653 650 644 636 630 619 623